Regional Weather Roundup
Issued by NWS

Home | Current Version | Previous Version | Graphics & Text | Print | Product List | Glossary On
Versions: 1 2 3 4 5 6 7 8 9 10 11 12 13 14 15 16 17 18 19 20 21 22 23 24 25 26 27 28 29 30 31 32 33 34 35 36 37 38 39 40 41 42 43 44 45 46 47 48 49 50
000
ASUS43 KDMX 270707
RWRIA

WEATHER ROUNDUP FOR IOWA
NATIONAL WEATHER SERVICE DES MOINES IA
200 AM CDT MON APR 27 2015

NOTE: "FAIR" INDICATES FEW OR NO CLOUDS BELOW 12,000 FEET WITH NO
SIGNIFICANT WEATHER AND/OR OBSTRUCTIONS TO VISIBILITY.

* - THESE STATIONS ARE NOT NWS STATIONS...THUS NOT UNDER NWS
QUALITY CONTROL.  THEY ALSO DO NOT REPORT WEATHER SUCH
AS PRECIPITATION OR FOG.

IAZ001>003-012>014-020>022-031>034-043>046-270800-
   NORTHWEST IOWA

CITY           SKY/WX    TMP DP  RH WIND       PRES   REMARKS
CARROLL *      PTCLDY    37  34  87 NW6       30.13S WCI  33
CHEROKEE *     CLEAR     39  36  87 NE3       30.16R
DENISON *      CLEAR     39  37  93 NE5       30.11F
LE MARS *      CLEAR     39  34  81 CALM      30.16S
ORANGE CITY *  CLEAR     43  28  56 E3        30.15S
SHELDON *      CLEAR     37  27  65 NE8       30.15S WCI  31
SIOUX CITY     CLEAR     45  35  68 CALM      30.14R
SPENCER        CLEAR     38  30  73 N5        30.16S WCI  34
STORM LAKE *   CLEAR     45  28  53 E3        30.15S
$$

IAZ055>058-069>071-079>083-090>094-270800-
   SOUTHWEST IOWA

CITY           SKY/WX    TMP DP  RH WIND       PRES   REMARKS
ATLANTIC *     CLEAR     36  36 100 N5        30.11F WCI  32
AUDUBON *      CLEAR     36  32  87 CALM      30.12F
CLARINDA *     CLEAR     39  36  87 N8        30.09F WCI  34
COUNCIL BLFS * CLEAR     48  34  57 E9        30.10F
CRESTON *      CLEAR     45  32  61 NE7       30.10F
HARLAN  *      CLEAR     41  39  93 N6        30.14F
LAMONI         PTCLDY    42  31  64 NE6       30.07F
RED OAK *      CLEAR     39  36  87 NE5       30.10F
SHENANDOAH *   CLEAR     39  37  93 NE8       30.09F WCI  34
$$

IAZ047>049-059>061-072>074-084-270800-
   CENTRAL IOWA

CITY           SKY/WX    TMP DP  RH WIND       PRES   REMARKS
AMES           CLEAR     41  32  70 NW3       30.12S
ANKENY *       CLEAR     37  36  93 CALM      30.11S
CHARITON *     PTCLDY    41  34  75 N6        30.10S
DES MOINES     CLEAR     45  29  53 CALM      30.11F
GRINNELL*      CLEAR     39  32  75 CALM      30.11R
KNOXVILLE *    CLEAR     43  34  70 N3        30.09S
MARSHALLTOWN   CLEAR     36  30  79 N3        30.10S
PELLA *        CLEAR     43  37  81 CALM      30.11S
PERRY *          N/A     41  36  81 N5        30.11S
$$

IAZ004>006-015-016-023>025-035-036-270800-
   NORTH CENTRAL IOWA

CITY           SKY/WX    TMP DP  RH WIND       PRES   REMARKS
ALGONA *       CLEAR     43  30  61 N6        30.15S
CLARION *      CLEAR     37  30  75 N5        30.13S WCI  34
ESTHERVILLE    CLEAR     36  24  62 NW7       30.15S WCI  30
FORT DODGE *   CLEAR     39  30  70 CALM      30.14S
MASON CITY     CLEAR     36  29  75 N6        30.14S WCI  31
FOREST CITY *  CLEAR     34  32  93 CALM      30.14S
IOWA FALLS *     N/A     37  30  75 NW3       30.12F
$$

IAZ007>011-017>019-026>030-037>042-050>054-066-270800-
   NORTHEAST IOWA

CITY           SKY/WX    TMP DP  RH WIND       PRES   REMARKS
CEDAR RAPIDS   CLEAR     40  32  73 NW8       30.08S WCI  34
CHARLES CITY * CLEAR     41  30  65 N8        30.13S
CLINTON *      CLEAR     36  30  80 NE13      30.11R WCI  27
DECORAH *      CLEAR     46  27  46 N5        30.10S
DUBUQUE        CLEAR     42  29  59 NE7       30.08R
MONTICELLO *   CLEAR     37  37 100 CALM      30.08S
OELWEIN *      CLEAR     43  28  56 N8        30.11S
WATERLOO       CLEAR     37  31  78 CALM      30.10S
$$

IAZ064-065-067-068-078-270800-
   EAST CENTRAL IOWA

CITY           SKY/WX    TMP DP  RH WIND       PRES   REMARKS
DAVENPORT      CLEAR     37  31  78 NW5       30.07S WCI  33
IOWA CITY      CLEAR     39  33  79 CALM      30.09F
MT. PLEASANT * CLEAR     39  36  87 W5        30.09S
MUSCATINE *    CLEAR     39  36  87 CALM      30.08S
QUAD CITIES    CLEAR     36  33  89 SW3       30.06S
$$

IAZ062-063-075>077-085>089-095>099-270800-
   SOUTHEAST IOWA

CITY           SKY/WX    TMP DP  RH WIND       PRES   REMARKS
BURLINGTON     CLEAR     38  35  89 NW5       30.07S WCI  34
FAIRFIELD *    CLEAR     39  34  81 NW5       30.09S
FORT MADISON * CLEAR     39  36  87 W3        30.08S
KEOKUK *       CLEAR     39  37  93 CALM      30.06F
OSKALOOSA *      N/A     41  34  75 N6        30.10S
CENTERVILLE *  CLEAR     39  34  81 N3        30.10F
OTTUMWA        CLEAR     43  33  68 NW3       30.09S
WASHINGTON *   CLEAR     39  39 100 NW5       30.08F
$$

ABBREVIATIONS USED IN REMARKS
   TC - TEMPERATURES IN CELSIUS
  WCI - WIND CHILL INDEX
   HX - HEAT INDEX
  VSB - VISIBILITY
$$




USA.gov is the U.S. government's official web portal to all federal, state and local government web resources and services.